This is the latest recevied weather packets stored in our database for station/object EA4BCR. If no packets are shown the sender has not sent any weather packets the latest 10 day(s).
| Time | Temp. | Humidity | Pressure | Rain* | Wind** | Luminosity | Snow |
|---|---|---|---|---|---|---|---|
| 1787948416 | 20.56° C | 32% | 1018.7 hPa | - | - | - | - |
| 1787947816 | 20.56° C | 31% | 1018.5 hPa | - | - | - | - |
| 1787947216 | 21.11° C | 32% | 1018.3 hPa | - | - | - | - |
| 1787946616 | 21.67° C | 34% | 1017.8 hPa | - | - | - | - |
| 1787946016 | 21.67° C | 30% | 1017.5 hPa | - | - | - | - |
| 1787945416 | 22.22° C | 28% | 1017.3 hPa | - | - | - | - |
| 1787944816 | 22.78° C | 27% | 1017 hPa | - | - | - | - |
| 1787944216 | 23.33° C | 27% | 1016.6 hPa | - | - | - | - |
| 1787943616 | 23.33° C | 26% | 1016.4 hPa | - | - | - | - |
| 1787943016 | 23.89° C | 26% | 1016.1 hPa | - | - | - | - |
| 1787942416 | 24.44° C | 26% | 1015.8 hPa | - | - | - | - |
| 1787941816 | 25° C | 25% | 1015.8 hPa | - | - | - | - |
| 1787941216 | 25° C | 24% | 1015.7 hPa | - | - | - | - |
| 1787940616 | 25.56° C | 23% | 1015.6 hPa | - | - | - | - |
| 1787940016 | 25.56° C | 21% | 1015.3 hPa | - | - | - | - |
| 1787939416 | 26.11° C | 21% | 1015.3 hPa | - | - | - | - |
| 1787938816 | 26.11° C | 20% | 1015.3 hPa | - | - | - | - |
| 1787938217 | 26.67° C | 19% | 1015.2 hPa | - | - | - | - |
| 1787937616 | 26.11° C | 19% | 1015.4 hPa | - | - | - | - |
| 1787937016 | 26.11° C | 16% | 1015.2 hPa | - | - | - | - |
| 1787936416 | 26.11° C | 18% | 1015.3 hPa | - | - | - | - |
| 1787935816 | 26.11° C | 19% | 1015.4 hPa | - | - | - | - |
| 1787935216 | 26.11° C | 18% | 1015.2 hPa | - | - | - | - |
| 1787934616 | 26.67° C | 19% | 1015 hPa | - | - | - | - |
| 1787934016 | 26.67° C | 18% | 1014.9 hPa | - | - | - | - |
* Rain since midnight (hover to see other rain measurements)
** Current wind speed in m/s (hover to see current wind gust speed)